STARLINK-5676, 55464

Orbit data source: Space-Track

STARLINK-5676, 55464 is a payload satellite owned by SpaceX/Seattle (US) in LEO that was launched on Thu, 02 Feb 2023 UTC via an FALCON 9 launch vehicle from the Air Force Eastern Test Range (AFETR). Payload-class satellites include a variety of spacecraft equipped with specific instruments for various scientific and technological missions. These include communications satellites like Starlink; space stations such as the ISS; scientific satellites like the Hubble; Earth observation satellites from companies like Planet Labs, Umbra, and HawkEye 360; GPS; miniature CubeSats for education and research; and military/defense satellites.

Loading next visibility...
Identifier
55464, 2023-015R
Orbit
LEO
Country
Flag of USUS
Related business
Manufacturer
SpaceX/Seattle
Mission
Operational Commercial Communications
Bus & Motor
STARLINK, Unknown motor
Mass
305 kg wet, ~290 kg dry
Launch date (UTC)
2023-02-02 (3 years ago)
Launch vehicle
FALCON 9
Launch site
Air Force Eastern Test Range (AFETR)
Object type
Payload
Rocket body
Debris
Shape & HBR
Box + 1 Pan, 10.1 m
Radar Cross Section
13.562 m², Large (>1 m²)

Expand to show TLE details & history
Last TLE update: 2 days ago

TLE from 2 days ago
0 STARLINK-5676
1 55464U 23015R   25302.31631462 -.00000378  00000-0 -12877-4 0  9992
2 55464  43.0060 319.6990 0001125 254.0972 105.9746 15.02537750150995
Epoch: 2025-10-29T07:35Z
TLE epoch observation values (Epoch: 2025-10-29T07:35:29.583Z)
Latitude
-0.00004°
Longitude
167.9345°
Altitude
559.068 km
Speed
7.584 km/s
True Right ascension
21h 18m 47s
True Declination
0° 00' 00"
Sunlit
Object was in daylight at epoch
Visualization orbit readout
Latitude
Unknown
Longitude
Unknown
Altitude
Unknown
Speed
Unknown
Apparent Right ascension
Unknown
Apparent Declination
Unknown
Sunlit
N/A
Visualization observer readout
Local Sidereal Time
19:50:31
Azimuth
Unknown
Elevation
Unknown
Doppler factor
Unknown
Orbital elements
Apogee altitude
561.778 km
Perigee altitude
560.216 km
Semi-major axis
6,939.134 km
Eccentricity
0.00011
Inclination
43.006°
RAAN
319.699°
Arg. of periapsis
254.0972°
True anomaly
105.98699°
Mean anomaly
105.9746°
Eccentric anomaly
105.9808°
Mean motion
3.75479 °/min
Orbital period
95.88 mins
BSTAR
-0.000012877
Loading maneuver chart data...
Computing Atmospheric mass density...
Loading historical data...
Loading historical data...
Loading historical data...
Loading historical data...
Loading historical data...
Loading historical data...
Loading historical data...

Documentation

Showing up to 5 results
|